Location: The Saddle
(36.8333°N, 80.3417°W)
Time: 17:16:00
(UTC-05:00)

Altair - Visible Passes

Search period start: 30 January 2023 00:00
Search period end: 09 February 2023 00:00
Orbit: 1501 x 1683 km, 47.2° (Epoch: 30 January)

Date Brightness Start Highest point End Pass type
(mag) Time Alt. Az. Time Alt. Az. Time Alt. Az.
30 Jan 8.4 04:15:32 36° S 04:15:32 36° S 04:21:21 10° SSE visible
30 Jan 9.1 06:13:42 10° WSW 06:14:55 10° WSW 06:16:07 10° SW visible
30 Jan 7.7 19:15:03 10° SSW 19:24:14 53° SE 19:29:05 30° ENE visible
30 Jan 7.9 21:19:17 10° WSW 21:27:08 56° WNW 21:27:08 56° WNW visible
31 Jan 8.8 03:52:21 27° SSE 03:52:21 27° SSE 03:56:20 10° SSE visible
31 Jan 9.1 05:50:26 12° SW 05:50:26 12° SW 05:53:22 10° SW visible
31 Jan 7.9 18:50:05 10° SSW 18:59:05 49° SE 19:05:42 21° ENE visible
31 Jan 7.6 20:54:00 10° WSW 21:03:42 68° NNW 21:03:45 68° NNW visible
31 Jan 9.6 23:00:31 10° WNW 23:01:48 15° WNW 23:01:48 15° WNW visible
01 Feb 9.2 03:29:11 18° SSE 03:29:11 18° SSE 03:31:17 10° SSE visible
01 Feb 9.1 05:27:16 13° SW 05:27:16 13° SW 05:29:32 10° SSW visible
01 Feb 8.0 18:25:08 10° SSW 18:33:58 44° SE 18:42:15 13° ENE visible
01 Feb 7.6 20:28:46 10° WSW 20:38:26 72° NNW 20:40:18 60° NNE visible
01 Feb 9.2 22:35:11 10° WNW 22:38:21 22° WNW 22:38:21 22° WNW visible
02 Feb 9.6 03:06:01 11° SE 03:06:01 11° SE 03:06:13 10° SE visible
02 Feb 9.2 05:04:05 12° SSW 05:04:05 12° SSW 05:05:21 10° SSW visible
02 Feb 8.1 18:00:15 10° SSW 18:08:51 41° SE 18:17:46 10° ENE visible
02 Feb 7.6 20:03:31 10° WSW 20:13:10 76° NNW 20:16:48 45° NE visible
02 Feb 8.8 22:09:51 10° WNW 22:14:51 31° WNW 22:14:51 31° WNW visible
03 Feb 9.4 04:40:55 10° SSW 04:40:55 10° SSW 04:41:00 10° SSW visible
03 Feb 7.6 19:38:18 10° WSW 19:47:56 80° NNW 19:53:16 33° NE visible
03 Feb 8.4 21:44:30 10° W 21:51:18 40° NW 21:51:18 40° NW visible
04 Feb 7.6 19:13:06 10° WSW 19:22:42 84° NNW 19:29:40 23° NE visible
04 Feb 8.1 21:19:10 10° W 21:27:42 47° NNW 21:27:42 47° NNW visible
04 Feb 9.8 23:25:26 10° WNW 23:25:44 11° WNW 23:25:44 11° WNW visible
05 Feb 7.6 18:47:55 10° SW 18:57:29 89° NNW 19:06:03 16° ENE visible
05 Feb 8.0 20:53:50 10° W 21:03:13 49° N 21:04:04 48° N visible
05 Feb 9.5 23:00:10 10° WNW 23:02:06 17° NW 23:02:06 17° NW visible
06 Feb 7.6 18:22:45 10° SW 18:32:16 86° SE 18:42:13 10° ENE visible
06 Feb 8.0 20:28:31 10° W 20:37:53 50° NNW 20:40:24 43° NNE visible
06 Feb 9.1 22:34:54 10° WNW 22:38:26 24° NW 22:38:26 24° NW visible
07 Feb 8.0 20:03:11 10° W 20:12:33 52° NNW 20:16:42 34° NE visible
07 Feb 8.8 22:09:37 10° WNW 22:14:44 32° NW 22:14:44 32° NW visible
08 Feb 8.0 19:37:52 10° W 19:47:14 53° NNW 19:52:58 26° NE visible
08 Feb 8.4 21:44:20 10° WNW 21:51:00 40° NNW 21:51:00 40° NNW visible
